loading
DOY 203 | 2024-07-21T11:28:02Z

OBJECT E, 60207

Orbit data source: Space-Track

OBJECT E, 60207 is a satellite owned by NASA JSC (US) in LEO that was launched on Thu, 04 Jul 2024 UTC via a Firefly Alpha launch vehicle from the Air Force Western Test Range (AFWTR). Unknown objects in Earth's orbit typically refer to objects detected orbiting the Earth but have not yet been identified or cataloged. These objects could be anything from previously untracked satellites, spent rocket stages, debris from satellite collisions, or even natural meteoroids temporarily captured by Earth's gravity.

Loading next visibility...
Loading greatness...
OBJECT E details
NORAD ID60207
COSPAR ID
2024-125E
Orbit
LEO
Last TLE update4 days ago
Origin
Flag of USNASA JSC (US)
ManufacturerNASA JSC
BusCubesat 6U
MotorUnknown
Mass10 kg wet, ~10 kg dry
Launch date (UTC)
2024-07-04 (2 weeks ago)
Launch vehicle
Firefly Alpha
Launch site
Air Force Western Test Range (AFWTR)
Object typeUnknown
Radar Cross SectionMedium (>0.1 m² and <1 m²)
Predictive object data (real-time)
Latitude79.54375°
Longitude34.28076°
Altitude525.667 km
Speed7.604 km/s
Apparent Right ascension12h 19m 00s
Apparent Declination36° 27' 36"
Sunlit
Object is in daylight
Predictive observer data (real-time)
Local Sidereal Time00:26:28
Azimuth1.542° NNE
Elevation-13.605°
Doppler factor1
Orbital elements
Apogee521.444 km
Perigee484.916 km
Semi-major axis6,881.317 km
Eccentricity0.0026541
Inclination97.3224°
RAAN51.6313°
Arg. of periapsis208.4889°
True anomaly151.63445°
Mean anomaly151.4897°
Mean motion3.80221 °/min
BSTAR0.00056233
Period94.68 mins
Definitive object data (Epoch: 2024-07-17T02:49:19.108Z)
Latitude-0.00002°
Longitude73.87498°
Altitude525.381 km
Speed7.592 km/s
True Right ascension03h 26m 31s
True Declination0° 00' 00"
Sunlit
Object was in daylight at TLE epoch
TLE from 4 days ago
0 OBJECT E
1 60207U 24125E   24199.11758227  .00012123  00000-0  56233-3 0  9998
2 60207  97.3224  51.6313 0026541 208.4889 151.4897 15.19875167  1961
Epoch: 2024-07-17T02:49Z
No data available

OBJECT E Visibility forecast

Observer location: 39.9160978°, -105.1181434

OBJECT E is not visible in the next 10 days
Span
Click to sort rows by Start time (UTC) header in descending order
Start Az.
Max El. time (UTC)
Max El. Az.
Max El.
End time (UTC)
End Az.